Flag for Germany Weather past 2 weeks in Schwäbisch Hall, Baden-Württemberg, Germany

Now
66 °F

Clear.


Feels Like: 66 °F
Forecast: 59 / 81 °F
Wind: 1 mph from East

Location: Oehringen

Current Time: Aug 31, 2015 at 5:36:05 AM

Latest Report: Aug 31, 2015 at 5:00 AM


Visibility: 12 mi

Pressure: 29.97 "Hg

Humidity: 85%

Dew point: 61 °F

Location of Schwäbisch HallLocation

Historic Weather in Schwäbisch Hall — Graph

°F

Schwäbisch Hall temperature yesterday

Maximum temperature yesterday: 92 °F (at 5:00 PM)
Minimum temperature yesterday: 64 °F (at 7:00 AM)
Average temperature yesterday: 78 °F

Past Weeks' High & Low Weather Summary

 TemperatureHumidityPressure
High92 °F (Aug 30, 5:00 PM)99% (Aug 21, 8:00 AM)30.29 "Hg (Aug 21, 8:00 AM)
Low51 °F (Aug 26, 7:00 AM)27% (Aug 22, 2:00 PM)29.68 "Hg (Aug 24, 3:00 PM)
Average67 °F70%30.01 "Hg
* Reported Aug 16 4:00 AM — Aug 31 4:00 AM, Schwäbisch Hall, Weather by CustomWeather, © 2015

Note: Actual official high and low records may vary slightly from our data, if they occured in-between our weather recording intervals... More about our weather records

Advertising

Schwäbisch Hall weather history for previous 24 hours

 ConditionsComfort  
Time TempWeatherWind HumidityBarometerVisibility
4:00 AM
Mon, Aug 31
67 °FClear.2 mph83%29.97 "Hg11 mi
3:00 AM68 °FClear.2 mph80%29.98 "Hg13 mi
2:00 AM70 °FClear.No wind76%29.99 "Hg14 mi
1:00 AM71 °FPassing clouds.1 mph77%29.99 "Hg19 mi
11:00 PM
Sun, Aug 30
74 °FClear.1 mph71%30.01 "Hg25 mi
10:00 PM76 °FClear.2 mph66%30.01 "Hg25 mi
9:00 PM81 °FClear.2 mph56%29.99 "Hg28 mi
8:00 PM86 °FScattered clouds.2 mph46%29.98 "Hg25 mi
7:00 PM90 °FSunny.2 mph37%29.97 "Hg31 mi
6:00 PM92 °FSunny.2 mph34%29.97 "Hg34 mi
5:00 PM92 °FSunny.3 mph33%29.98 "Hg43 mi
4:00 PM91 °FSunny.2 mph37%29.99 "Hg34 mi
3:00 PM90 °FSunny.3 mph39%30.02 "Hg16 mi
2:00 PM89 °FSunny.2 mph44%30.04 "Hg25 mi
1:00 PM86 °FSunny.2 mph47%30.06 "Hg25 mi
12:00 PM83 °FSunny.3 mph51%30.08 "Hg19 mi
11:00 AM81 °FSunny.2 mph57%30.08 "Hg28 mi
10:00 AM76 °FOvercast.1 mph59%30.09 "Hg17 mi
9:00 AM71 °FSunny.2 mph75%30.09 "Hg14 mi
8:00 AM66 °FPassing clouds.1 mph86%30.09 "Hg10 mi
7:00 AM64 °FSunny.No wind92%30.09 "Hg10 mi
6:00 AM65 °FClear.1 mph89%30.08 "Hg9 mi
5:00 AM66 °FClear.1 mph88%30.07 "Hg12 mi
Weather by CustomWeather, © 2015

See weather overviewHow to use our weather pages